Hamilton Island Airport, Australia

4:43 AM AEST on February 10, 2016 (GMT +1000)
Hamilton Island

Weather History for YBHM - October, 2013

Change the Weather History Date:

Wednesday, October 2, 2013

  Actual Average Record
Temperature  
Mean Temperature 76 °F -  
Max Temperature 80 °F - - ()
Min Temperature 71 °F - - ()
Cooling Degree Days 10    
Growing Degree Days 26 (Base 50)    
Moisture  
Dew Point 69 °F    
Average Humidity 80    
Maximum Humidity 94    
Minimum Humidity 63    
Precipitation  
Precipitation 0.00 in - - ()
Sea Level Pressure  
Sea Level Pressure 30.00 in    
Wind  
Wind Speed 7 mph ()    
Max Wind Speed 16 mph    
Max Gust Speed -    
T = Trace of Precipitation, MM = Missing Value Source: Averaged Metar Reports

Daily Weather History Graph

Daily Weather History Graph

Search for Another Location

Airport or City:

Trip Planner

Search our weather history database for the weather conditions in past years. The results will help you decide how hot, cold, wet, or windy it might be!

Date:

Astronomy

Oct. 02, 2013 Rise Set
Actual Time 5:44 AM AEST 6:02 PM AEST
Civil Twilight 5:22 AM AEST 6:24 PM AEST
Nautical Twilight 4:57 AM AEST 6:50 PM AEST
Astronomical Twilight 4:31 AM AEST 7:16 PM AEST
Moon 3:31 AM AEST (10/2) 3:34 PM AEST (10/2)
Length of Visible Light 13h 01m
Length of Day
12h 17m
Waning Crescent, 9% of the Moon is Illuminated
Oct 2
Waning Crescent
Oct 5
New
Oct 12
First Quarter
Oct 19
Full
Oct 27
Last Quarter

Hourly Weather History & Observations

Time (AEST) Temp. Heat Index Dew Point Humidity Pressure Visibility Wind Dir Wind Speed Gust Speed Precip Events Conditions
12:00 AM 73 °F - 68 °F 80% 30.04 in - NNE 4.6 mph - -  
12:00 AM 73.4 °F - 68.0 °F 83% 30.04 in - NNE 4.6 mph - N/A   Unknown
12:30 AM 73.4 °F - 69.8 °F 88% 30.04 in - Calm Calm - N/A   Unknown
1:00 AM 71.6 °F - 68.0 °F 88% 30.01 in - Calm Calm - N/A   Unknown
1:30 AM 71.6 °F - 68.0 °F 88% 30.01 in - Calm Calm - N/A   Unknown
2:00 AM 71.6 °F - 68.0 °F 88% 29.98 in - North 5.8 mph - N/A   Unknown
2:30 AM 71.6 °F - 68.0 °F 88% 29.98 in - NNW 4.6 mph - N/A   Unknown
3:00 AM 72 °F - 68 °F 82% 29.99 in - North 6.9 mph - -  
3:00 AM 71.6 °F - 68.0 °F 88% 29.98 in - North 6.9 mph - N/A   Unknown
3:30 AM 71.6 °F - 68.0 °F 88% 29.98 in - North 4.6 mph - N/A   Unknown
4:00 AM 71.6 °F - 68.0 °F 88% 29.98 in - NNE 5.8 mph - N/A   Unknown
4:30 AM 71.6 °F - 68.0 °F 88% 30.01 in - NE 4.6 mph - N/A   Unknown
5:00 AM 71.6 °F - 69.8 °F 94% 30.04 in - South 9.2 mph - N/A   Unknown
5:30 AM 71.6 °F - 69.8 °F 94% 30.04 in - South 8.1 mph - N/A   Unknown
6:00 AM 73 °F - 70 °F 89% 30.05 in - SSW 9.2 mph - -  
6:00 AM 73.4 °F - 69.8 °F 88% 30.04 in - South 9.2 mph - N/A   Unknown
6:30 AM 73.4 °F - 69.8 °F 88% 30.04 in - SSE 9.2 mph - N/A   Unknown
7:00 AM 75.2 °F - 71.6 °F 89% 30.06 in - SSE 5.8 mph - N/A   Unknown
7:30 AM 77.0 °F - 69.8 °F 78% 30.06 in - SE 6.9 mph - N/A   Unknown
8:00 AM 77.0 °F - 69.8 °F 78% 30.06 in - SSE 9.2 mph - N/A   Unknown
8:30 AM 77.0 °F - 69.8 °F 78% 30.06 in - SSE 9.2 mph - N/A   Unknown
9:00 AM 78 °F - 69 °F 68% 30.07 in - SE 9.2 mph - -  
9:00 AM 78.8 °F - 69.8 °F 74% 30.06 in - SE 9.2 mph - N/A   Unknown
9:30 AM 78.8 °F - 69.8 °F 74% 30.06 in - SE 9.2 mph - N/A   Unknown
10:00 AM 78.8 °F - 69.8 °F 74% 30.04 in - SE 9.2 mph - N/A   Unknown
10:30 AM 80.6 °F 83.2 °F 68.0 °F 65% 30.04 in - ESE 10.4 mph - N/A   Unknown
11:00 AM 78.8 °F - 68.0 °F 69% 30.04 in - East 13.8 mph - N/A   Unknown
11:30 AM 80.6 °F 83.9 °F 69.8 °F 70% 30.04 in - ESE 11.5 mph - N/A   Unknown
12:00 PM 80 °F - 69 °F 63% 30.02 in - East 11.5 mph - -  
12:00 PM 80.6 °F 83.9 °F 69.8 °F 70% 30.01 in - East 11.5 mph - N/A   Unknown
12:30 PM 78.8 °F - 69.8 °F 74% 30.01 in - East 12.7 mph - N/A   Unknown
1:00 PM 78.8 °F - 69.8 °F 74% 29.98 in - East 15.0 mph - N/A   Unknown
1:30 PM 78.8 °F - 68.0 °F 69% 29.98 in - East 16.1 mph - N/A   Unknown
2:00 PM 78.8 °F - 69.8 °F 74% 29.95 in - East 16.1 mph - N/A   Unknown
2:30 PM 78.8 °F - 69.8 °F 74% 29.95 in - East 15.0 mph - N/A   Unknown
3:00 PM 77 °F - 68 °F 67% 29.94 in - East 16.1 mph - -  
3:00 PM 77.0 °F - 68.0 °F 74% 29.92 in - East 16.1 mph - N/A   Unknown
3:30 PM 77.0 °F - 69.8 °F 78% 29.92 in - East 15.0 mph - N/A   Unknown
4:00 PM 77.0 °F - 68.0 °F 74% 29.92 in - East 15.0 mph - N/A   Unknown
5:00 PM 75.2 °F - 68.0 °F 78% 29.95 in - East 13.8 mph - N/A   Unknown
5:30 PM 75.2 °F - 69.8 °F 83% 29.95 in - East 12.7 mph - N/A   Unknown
6:00 PM 76 °F - 69 °F 72% 29.95 in - NNE 12.7 mph - -  
6:00 PM 75.2 °F - 68.0 °F 78% 29.95 in - NNE 12.7 mph - N/A   Unknown
7:30 PM 73.4 °F - 68.0 °F 83% 29.98 in - NE 6.9 mph - N/A   Unknown
8:30 PM 73.4 °F - 68.0 °F 83% 29.98 in - North 4.6 mph - N/A   Unknown
9:00 PM 74 °F - 69 °F 80% 30.01 in - North 5.8 mph - -  
9:00 PM 73.4 °F - 69.8 °F 88% 30.01 in - North 5.8 mph - N/A   Unknown
9:30 PM 73.4 °F - 69.8 °F 88% 30.01 in - North 5.8 mph - N/A   Unknown
10:00 PM 73.4 °F - 69.8 °F 88% 29.98 in - NNE 5.8 mph - N/A   Unknown
10:30 PM 73.4 °F - 69.8 °F 88% 29.98 in - North 4.6 mph - N/A   Unknown
11:00 PM 73.4 °F - 69.8 °F 88% 29.98 in - North 5.8 mph - N/A   Unknown
11:30 PM 73.4 °F - 69.8 °F 88% 29.98 in - NW 5.8 mph - N/A   Unknown